Tracking 35237 objects as of 6-Sep-2026
HD Live streaming from Space Station
objects crossing your sky now

DIAMANT R/B(MIKA)


DIAMANT R/B(MIKA) is no longer on orbit


NORAD ID: 4345
Int'l Code: 1970-017B
Launch date: March 10, 1970
Source: France (FR)
Launch site: FRENCH GUIANA (FRGUI)
Decay date: 1974-09-09

Note: This is a ROCKET BODY
Your satellite tracking list
Your tracking list is empty




NASA's NSSDC Master Catalog

Two Line Element Set (TLE):
1 04345U 70017  B 72223.31872341  .00061782 +21452-6 +00000-0 0  9990
2 04345 005.4426 232.5463 0616696 313.6683 041.3904 14.45247545124771
Source of the keplerian elements: AFSPC